FW1369 Weather Reports


time (UTC)temp
F
wind
direction
speed
knots
gust
knots
rain 1hr
in
rain 24hr
in
rain mn
in
humidity
%
barometer
mb
20260509113503 40 29 0.9 1.7 0.00 0.05 0.00 84 1007.2
20260509113002 40 29 0.0 2.6 0.00 0.05 0.00 83 1007.2
20260509112501 40 29 0.9 2.6 0.00 0.05 0.00 83 1007.3
20260509112100 39 29 0.0 2.6 0.00 0.05 0.00 83 1007.4
20260509111602 39 29 0.0 0.9 0.00 0.05 0.00 83 1007.3
20260509111159 39 29 0.0 0.9 0.00 0.05 0.00 83 1007.3
20260509110559 39 317 0.0 0.0 0.00 0.05 0.00 82 1007.3
20260509110058 39 317 0.0 0.0 0.00 0.05 0.00 82 1007.5
20260509105558 38 317 0.0 0.0 0.00 0.05 0.00 82 1007.5
20260509105058 38 317 0.0 0.0 0.00 0.05 0.00 82 1007.5
20260509104603 38 317 0.0 0.0 0.00 0.05 0.00 82 1007.4
20260509104056 38 317 0.0 0.0 0.00 0.05 0.00 82 1007.3
20260509103556 38 317 0.0 0.0 0.00 0.05 0.00 82 1007.2
20260509103106 38 317 0.0 0.0 0.00 0.05 0.00 82 1007.2
20260509102556 38 317 0.0 0.0 0.00 0.05 0.00 81 1007.3
20260509102056 38 317 0.0 0.0 0.00 0.05 0.00 81 1007.2
20260509101615 38 317 0.0 0.0 0.00 0.05 0.00 81 1007.2
20260509101055 38 317 0.0 0.0 0.00 0.05 0.00 81 1007.2
20260509100555 38 317 0.0 0.0 0.00 0.05 0.00 81 1007.2
20260509100056 38 317 0.0 0.0 0.00 0.05 0.00 81 1007.2
20260509095554 38 317 0.0 0.0 0.00 0.05 0.00 81 1007.1
20260509095054 38 317 0.0 0.0 0.00 0.05 0.00 81 1007.2
20260509094600 38 317 0.0 0.0 0.00 0.05 0.00 81 1007.3
20260509094053 38 317 0.0 0.0 0.00 0.05 0.00 81 1007.3
20260509093554 38 317 0.0 0.0 0.00 0.05 0.00 81 1007.3
20260509093055 38 317 0.0 0.0 0.00 0.05 0.00 81 1007.2
20260509092553 38 317 0.0 0.0 0.00 0.05 0.00 81 1007.3
20260509092056 38 317 0.0 0.0 0.00 0.05 0.00 81 1007.2
20260509091556 38 317 0.0 0.0 0.00 0.05 0.00 81 1007.2
20260509091052 38 317 0.0 0.0 0.00 0.05 0.00 81 1007.2
20260509090553 38 317 0.0 0.0 0.00 0.05 0.00 81 1007.3
20260509090058 38 317 0.0 0.0 0.00 0.05 0.00 81 1007.3
20260509085551 38 317 0.0 0.9 0.00 0.05 0.00 81 1007.4
20260509085051 38 317 0.0 0.9 0.00 0.05 0.00 81 1007.5
20260509084559 38 317 0.0 1.7 0.00 0.05 0.00 81 1007.5
20260509084050 38 317 0.0 1.7 0.00 0.05 0.00 80 1007.5
20260509083549 38 317 0.0 0.0 0.00 0.05 0.00 80 1007.5
20260509083149 38 317 0.0 0.0 0.00 0.05 0.00 80 1007.6
20260509082547 37 317 0.0 0.0 0.00 0.05 0.00 80 1007.7
20260509082050 37 317 0.0 0.0 0.00 0.05 0.00 80 1007.8
20260509081546 37 317 0.0 0.0 0.00 0.05 0.00 80 1007.9
20260509081047 37 317 0.0 0.0 0.00 0.05 0.00 80 1007.9
20260509080548 37 317 0.0 0.0 0.00 0.05 0.00 80 1007.9
20260509080048 37 317 0.0 0.0 0.00 0.05 0.00 79 1008.0
20260509075544 37 317 0.0 0.0 0.00 0.05 0.00 79 1008.0
20260509075044 37 317 0.0 0.0 0.00 0.05 0.00 79 1008.0
20260509074605 37 317 0.0 0.0 0.00 0.05 0.00 79 1008.0
20260509074043 37 317 0.0 0.0 0.00 0.05 0.00 79 1008.0
20260509073546 37 317 0.0 0.0 0.00 0.05 0.00 79 1008.0
20260509073100 37 317 0.0 0.0 0.00 0.05 0.00 79 1008.1
20260509072542 37 317 0.0 0.0 0.00 0.05 0.00 79 1008.2
20260509072042 37 317 0.0 0.0 0.00 0.05 0.00 79 1008.2
20260509071549 37 317 0.0 0.0 0.00 0.05 0.00 78 1008.2
20260509071041 37 317 0.0 0.0 0.00 0.05 0.00 78 1008.2
20260509070541 37 317 0.0 0.0 0.00 0.05 0.00 78 1008.3
20260509070044 37 317 0.0 0.0 0.00 0.05 0.00 78 1008.3
20260509065539 37 317 0.0 0.0 0.00 0.05 0.00 78 1008.4
20260509065039 37 317 0.0 0.0 0.00 0.05 0.00 78 1008.4
20260509064539 37 317 0.0 1.7 0.00 0.05 0.00 78 1008.4
20260509064037 37 317 0.0 1.7 0.00 0.05 0.00 77 1008.5
20260509063536 37 317 0.0 0.0 0.00 0.05 0.00 77 1008.6
20260509063052 37 317 0.0 0.0 0.00 0.05 0.00 77 1008.6
20260509062536 37 317 0.0 0.0 0.00 0.05 0.00 77 1008.7
20260509062034 37 317 0.0 0.0 0.00 0.05 0.00 76 1008.8
20260509061537 37 317 0.0 0.0 0.00 0.05 0.00 76 1008.8
20260509061034 37 317 0.0 0.0 0.00 0.05 0.00 76 1008.9
20260509060533 37 317 0.0 0.0 0.00 0.05 0.00 76 1009.0
20260509060031 37 317 0.0 0.0 0.00 0.05 0.00 76 1009.1
20260509055531 37 317 0.0 0.0 0.00 0.05 0.00 76 1009.1
20260509055032 37 317 0.0 0.0 0.00 0.05 0.00 76 1009.1
20260509054534 37 317 0.0 0.0 0.00 0.05 0.00 76 1009.1
20260509054028 38 317 0.0 0.0 0.00 0.05 0.00 76 1009.2
20260509053528 38 317 0.0 0.0 0.00 0.05 0.00 75 1009.3
20260509053044 38 317 0.0 0.0 0.00 0.05 0.00 75 1009.4
20260509052525 38 317 0.0 0.0 0.00 0.05 0.00 75 1009.5
20260509052025 38 317 0.0 0.0 0.00 0.05 0.00 75 1009.5
20260509051525 38 317 0.0 0.0 0.00 0.05 0.00 75 1009.5
20260509051025 38 317 0.0 0.0 0.00 0.05 0.00 74 1009.5
20260509050526 38 317 0.0 0.0 0.00 0.05 0.00 74 1009.6
20260509050024 38 317 0.0 0.0 0.00 0.06 0.00 74 1009.6
20260509045526 38 317 0.0 0.0 0.00 0.06 0.00 74 1009.6
20260509045022 38 317 0.0 0.0 0.00 0.06 0.00 73 1009.6
20260509044521 38 317 0.0 0.0 0.00 0.06 0.00 73 1009.7
20260509044023 38 317 0.0 0.0 0.00 0.06 0.00 73 1009.7
20260509043519 38 317 0.0 0.0 0.00 0.06 0.00 73 1009.7
20260509043037 39 317 0.0 0.0 0.00 0.06 0.00 72 1009.8
20260509042518 39 317 0.0 0.0 0.00 0.06 0.00 72 1009.9
20260509042017 39 317 0.0 0.0 0.00 0.06 0.00 72 1009.9
20260509041518 39 317 0.0 0.0 0.00 0.06 0.00 71 1009.9
20260509041017 39 317 0.0 0.0 0.00 0.06 0.00 71 1009.9
20260509040515 39 317 0.0 0.0 0.00 0.06 0.00 71 1009.7
20260509040015 39 317 0.0 0.0 0.00 0.06 0.06 71 1009.8
20260509035518 39 317 0.0 0.0 0.00 0.06 0.06 70 1009.8
20260509035017 40 317 0.0 0.0 0.00 0.06 0.06 70 1009.9
20260509034513 40 317 0.0 0.0 0.00 0.06 0.06 70 1009.9
20260509034014 40 317 0.0 0.0 0.00 0.06 0.06 69 1009.9
20260509033515 40 317 0.0 0.0 0.00 0.06 0.06 69 1009.9
20260509033013 40 317 0.0 0.0 0.00 0.06 0.06 69 1009.9
20260509032515 41 317 0.0 0.0 0.00 0.06 0.06 69 1009.9
20260509032014 41 317 0.0 0.0 0.00 0.06 0.06 68 1010.0
20260509031513 41 317 0.0 0.0 0.00 0.06 0.06 68 1009.9
20260509031013 41 317 0.0 0.0 0.00 0.06 0.06 67 1010.0
20260509030513 41 317 0.0 0.0 0.00 0.06 0.06 67 1010.0
20260509030013 42 317 0.0 0.0 0.00 0.06 0.06 67 1010.1
20260509025512 42 317 0.0 0.0 0.00 0.06 0.06 66 1010.0
20260509025014 42 317 0.0 0.0 0.00 0.06 0.06 66 1010.1
20260509024511 42 317 0.0 0.0 0.00 0.06 0.06 65 1010.1
20260509024012 42 317 0.0 0.0 0.00 0.06 0.06 65 1010.1
20260509023511 43 317 0.0 0.0 0.00 0.06 0.06 65 1010.1
20260509023011 43 317 0.0 0.0 0.00 0.06 0.06 64 1010.1
20260509022511 43 317 0.0 0.0 0.00 0.06 0.06 63 1010.1
20260509022011 44 317 0.0 0.0 0.00 0.06 0.06 63 1010.1
20260509021511 44 317 0.0 0.0 0.00 0.06 0.06 63 1010.2
20260509021011 44 317 0.0 0.0 0.00 0.06 0.06 62 1010.2
20260509020510 45 317 0.0 0.0 0.00 0.06 0.06 61 1010.3
20260509020010 45 317 0.0 0.0 0.00 0.06 0.06 61 1010.3
20260509015510 45 317 0.0 0.0 0.00 0.06 0.06 60 1010.2
20260509015011 46 317 0.0 0.0 0.00 0.06 0.06 59 1010.2
20260509014520 46 317 0.0 0.0 0.00 0.06 0.06 58 1010.2
20260509014010 46 317 0.0 0.0 0.00 0.06 0.06 57 1010.1
20260509013514 47 317 0.0 0.0 0.00 0.06 0.06 56 1010.0
20260509013010 47 317 0.0 0.0 0.00 0.06 0.06 56 1010.0
20260509012509 48 317 0.0 0.0 0.00 0.06 0.06 55 1010.0
20260509012009 48 317 0.0 0.0 0.00 0.06 0.06 54 1009.9
20260509011508 48 317 0.0 0.0 0.00 0.06 0.06 53 1009.9
20260509011013 49 317 0.0 0.0 0.00 0.06 0.06 52 1009.8
20260509010508 49 317 0.0 0.0 0.00 0.06 0.06 52 1009.7
20260509010008 50 317 0.0 0.0 0.00 0.06 0.06 51 1009.6
20260509005508 50 317 0.0 0.0 0.00 0.06 0.06 50 1009.5
20260509005009 51 317 0.0 0.0 0.00 0.06 0.06 49 1009.4
20260509004509 51 317 0.0 0.0 0.00 0.06 0.06 49 1009.3
20260509004008 52 317 0.0 0.0 0.00 0.06 0.06 48 1009.3
20260509003507 52 317 0.0 0.0 0.00 0.06 0.06 47 1009.2
20260509003007 52 317 0.0 0.0 0.00 0.06 0.06 47 1009.2
20260509002507 53 317 0.0 0.0 0.00 0.06 0.06 46 1009.1
20260509002006 53 317 0.0 0.0 0.00 0.06 0.06 46 1009.1
20260509001509 54 317 0.0 0.0 0.00 0.06 0.06 45 1009.1
20260509001007 54 317 0.0 0.0 0.00 0.06 0.06 45 1009.1
20260509000507 55 317 0.0 0.0 0.00 0.06 0.06 44 1009.1
20260509000008 55 317 0.0 0.0 0.00 0.06 0.06 44 1009.0
20260508235506 55 317 0.0 0.0 0.00 0.06 0.06 43 1009.1
20260508235006 55 317 0.0 0.0 0.00 0.06 0.06 43 1009.0
20260508234505 56 317 0.0 0.0 0.00 0.06 0.06 43 1008.9
20260508234004 56 317 0.0 0.0 0.00 0.06 0.06 43 1008.9
20260508233504 56 317 0.0 0.0 0.00 0.06 0.06 43 1008.9
20260508233004 56 317 0.0 0.0 0.00 0.06 0.06 43 1008.8
20260508232505 56 317 0.0 0.9 0.00 0.06 0.06 42 1008.8
20260508232004 56 317 0.0 2.6 0.00 0.06 0.06 42 1008.8
20260508231504 56 317 0.0 4.3 0.00 0.06 0.06 41 1008.8
20260508231004 57 317 0.0 4.3 0.00 0.06 0.06 41 1008.8
20260508230503 57 323 0.0 4.3 0.00 0.06 0.06 40 1008.8
20260508230005 57 323 0.9 3.5 0.00 0.06 0.06 40 1008.8
20260508225506 58 323 0.9 3.5 0.00 0.06 0.06 39 1008.9
20260508225003 58 323 0.9 3.5 0.00 0.06 0.06 38 1008.9
20260508224509 58 325 0.9 4.3 0.00 0.06 0.06 37 1008.8
20260508224004 59 325 1.7 4.3 0.00 0.06 0.06 38 1008.8
20260508223502 59 327 0.0 3.5 0.00 0.06 0.06 38 1008.8
20260508223002 59 328 0.0 7.0 0.00 0.06 0.06 38 1008.8
20260508222501 59 329 0.9 7.0 0.00 0.06 0.06 37 1008.8
20260508222001 59 301 1.7 4.3 0.00 0.06 0.06 38 1008.8
20260508221504 59 294 0.9 4.3 0.00 0.06 0.06 39 1008.8
20260508221004 59 288 0.9 4.3 0.00 0.06 0.06 39 1008.8
20260508220605 59 292 1.7 3.5 0.00 0.06 0.06 40 1008.8
20260508220104 59 291 0.0 3.5 0.00 0.06 0.06 42 1008.8
20260508215559 59 291 0.9 3.5 0.00 0.06 0.06 42 1008.9
20260508215058 59 290 0.9 7.8 0.00 0.06 0.06 42 1009.0
20260508214558 59 295 0.9 7.8 0.00 0.06 0.06 40 1008.9
20260508214056 59 305 0.0 4.3 0.00 0.06 0.06 40 1008.9
20260508213555 58 45 0.9 4.3 0.00 0.06 0.06 40 1008.9
20260508213057 58 350 0.9 5.2 0.00 0.06 0.06 40 1009.0
20260508212555 58 343 0.0 5.2 0.00 0.06 0.06 43 1009.0
20260508212054 58 268 1.7 6.1 0.00 0.06 0.06 40 1009.0
20260508211555 58 330 1.7 6.1 0.00 0.06 0.06 39 1009.2
20260508211053 58 281 0.9 5.2 0.00 0.06 0.06 41 1009.2
20260508210553 58 321 0.0 5.2 0.00 0.06 0.06 42 1009.2
20260508210053 58 323 1.7 6.1 0.00 0.06 0.06 42 1009.1
20260508205552 58 304 0.9 6.1 0.00 0.06 0.06 41 1009.2
20260508205051 58 323 0.9 6.1 0.00 0.06 0.06 41 1009.2
20260508204550 58 269 1.7 6.1 0.00 0.06 0.06 45 1009.3
20260508204053 57 250 0.9 3.5 0.00 0.06 0.06 42 1009.3
20260508203547 57 278 0.0 3.5 0.00 0.06 0.06 44 1009.3
20260508203047 56 265 0.0 6.1 0.00 0.06 0.06 44 1009.3
20260508202549 56 308 0.9 7.0 0.00 0.06 0.06 45 1009.6
20260508202045 56 330 1.7 7.0 0.00 0.06 0.06 46 1009.6
20260508201544 56 330 0.9 4.3 0.00 0.06 0.06 47 1009.7
20260508201043 55 55 0.9 3.5 0.00 0.06 0.06 47 1009.8
20260508200543 55 304 0.9 3.5 0.00 0.06 0.06 49 1009.9
20260508200044 55 318 0.9 3.5 0.00 0.06 0.06 49 1009.9
20260508195543 55 331 0.0 4.3 0.00 0.06 0.06 49 1009.9
20260508195043 55 332 0.0 5.2 0.00 0.06 0.06 49 1010.0
20260508194559 56 316 1.7 7.8 0.00 0.06 0.06 46 1010.0
20260508194044 56 312 1.7 7.8 0.00 0.06 0.06 47 1010.0
20260508193541 56 290 1.7 7.0 0.00 0.06 0.06 51 1010.1
20260508193041 56 15 1.7 9.6 0.00 0.06 0.06 47 1010.2
20260508192541 56 286 3.5 9.6 0.00 0.06 0.06 48 1010.3
20260508192043 56 346 1.7 5.2 0.00 0.06 0.06 52 1010.2
20260508191547 55 305 0.0 5.2 0.00 0.06 0.06 52 1010.4
20260508191040 55 304 1.7 7.0 0.00 0.06 0.06 53 1010.3
20260508190540 55 288 2.6 7.0 0.00 0.06 0.06 51 1010.4
20260508190100 55 296 2.6 7.0 0.00 0.06 0.06 46 1010.4
20260508185540 56 309 1.7 8.7 0.00 0.06 0.06 48 1010.3
20260508185039 56 263 0.9 8.7 0.00 0.06 0.06 50 1010.3
20260508184541 55 326 2.6 9.6 0.00 0.06 0.06 48 1010.3
20260508184037 55 316 1.7 9.6 0.00 0.06 0.06 48 1010.4
20260508183537 55 287 0.9 9.6 0.00 0.06 0.06 53 1010.3
20260508183042 55 247 0.0 7.0 0.00 0.06 0.06 54 1010.4
20260508182536 55 298 2.6 9.6 0.00 0.06 0.06 51 1010.4
20260508182036 55 244 2.6 9.6 0.00 0.06 0.06 57 1010.5
20260508181543 55 294 1.7 7.8 0.00 0.06 0.06 52 1010.6
20260508181036 55 311 0.0 7.0 0.00 0.06 0.06 51 1010.6
20260508180539 55 346 2.6 8.7 0.00 0.06 0.06 51 1010.6
20260508180036 55 284 2.6 9.6 0.00 0.06 0.06 55 1010.7
20260508175534 55 355 2.6 9.6 0.00 0.06 0.06 56 1010.7
20260508175034 54 297 0.9 7.8 0.00 0.06 0.06 60 1010.7
20260508174537 54 209 0.9 4.3 0.00 0.06 0.06 62 1010.8
20260508174031 54 318 1.7 8.7 0.00 0.06 0.06 60 1010.8
20260508173530 53 279 3.5 8.7 0.00 0.06 0.06 61 1010.9
20260508173029 53 266 0.9 7.0 0.00 0.06 0.06 63 1010.9
20260508172532 53 167 0.9 7.0 0.00 0.06 0.06 60 1011.1
20260508172027 53 323 0.0 8.7 0.00 0.06 0.06 63 1011.1
20260508171530 52 309 2.6 8.7 0.00 0.06 0.06 61 1011.1
20260508171026 53 298 0.0 4.3 0.00 0.06 0.06 66 1011.2
20260508170527 52 304 0.0 6.1 0.00 0.06 0.06 66 1011.1
20260508170026 52 305 1.7 6.1 0.00 0.06 0.06 63 1011.3
20260508165526 53 301 0.9 5.2 0.00 0.06 0.06 66 1011.1
20260508165024 52 317 0.9 7.8 0.00 0.06 0.06 66 1011.3
20260508164522 51 159 0.9 7.8 0.00 0.06 0.06 67 1011.3
20260508164022 51 319 1.7 7.8 0.00 0.06 0.06 66 1011.4
20260508163521 51 265 1.7 7.0 0.00 0.06 0.06 67 1011.5
20260508163020 51 314 0.9 7.0 0.00 0.06 0.06 66 1011.6
20260508162523 51 311 0.9 4.3 0.00 0.06 0.06 68 1011.6
20260508162021 51 347 0.9 7.0 0.00 0.06 0.06 69 1011.7
20260508161529 50 246 1.7 7.0 0.00 0.06 0.06 68 1011.7
20260508161019 50 24 0.9 7.0 0.00 0.06 0.06 70 1011.8
20260508160520 50 317 1.7 10.4 0.00 0.06 0.06 70 1011.7
20260508160018 49 303 1.7 10.4 0.00 0.06 0.06 69 1011.8
20260508155518 50 298 1.7 9.6 0.00 0.06 0.06 71 1011.8
20260508155018 50 272 1.7 9.6 0.00 0.06 0.06 71 1011.7
20260508154521 51 312 1.7 8.7 0.00 0.06 0.06 72 1011.7
20260508154018 50 279 0.9 8.7 0.00 0.06 0.06 74 1011.6
20260508153515 50 340 0.9 5.2 0.00 0.06 0.06 74 1011.6
20260508153027 49 271 0.9 7.0 0.00 0.06 0.06 75 1011.7
20260508152514 49 270 0.9 7.0 0.00 0.06 0.06 76 1011.6
20260508152013 48 270 0.9 5.2 0.00 0.06 0.06 75 1011.7
20260508151513 48 269 0.9 5.2 0.00 0.06 0.06 76 1011.7
20260508151016 49 233 0.9 3.5 0.00 0.06 0.06 78 1011.7
20260508150515 49 292 0.9 2.6 0.01 0.06 0.06 80 1011.7
20260508150011 48 293 0.0 6.1 0.01 0.06 0.06 81 1011.7
20260508145512 47 293 1.7 6.1 0.01 0.06 0.06 81 1011.7
20260508145011 47 263 0.9 2.6 0.01 0.06 0.06 83 1011.8
20260508144509 46 263 0.0 2.6 0.01 0.06 0.06 83 1011.8
20260508144007 45 263 0.9 2.6 0.01 0.06 0.06 84 1011.8
20260508143506 45 261 0.0 1.7 0.01 0.06 0.06 85 1011.8
20260508143004 43 261 0.0 3.5 0.01 0.06 0.06 86 1011.8
20260508142503 42 261 0.0 3.5 0.01 0.06 0.06 85 1011.9
20260508142004 42 260 0.0 2.6 0.01 0.06 0.06 85 1012.0
20260508141505 42 260 0.9 2.6 0.01 0.06 0.06 85 1011.9
20260508141003 42 260 0.0 3.5 0.01 0.06 0.06 85 1011.8
20260508140503 42 260 0.0 3.5 0.00 0.05 0.05 85 1011.7
20260508140005 42 260 0.9 3.5 0.01 0.05 0.05 85 1011.7
20260508135502 42 255 1.7 3.5 0.02 0.05 0.05 85 1011.7
20260508135003 41 296 0.0 3.5 0.03 0.05 0.05 85 1011.7
20260508134501 41 296 0.0 7.8 0.03 0.05 0.05 85 1011.8
20260508134001 41 296 0.0 7.8 0.03 0.05 0.05 85 1011.7
20260508133501 41 324 0.9 3.5 0.03 0.05 0.05 84 1011.8
20260508133001 41 324 0.0 2.6 0.04 0.05 0.05 85 1011.7
20260508132501 41 324 0.0 3.5 0.04 0.05 0.05 84 1011.8
20260508132003 41 324 0.0 3.5 0.04 0.05 0.05 84 1011.8
20260508131501 41 325 0.9 3.5 0.04 0.05 0.05 84 1011.9
20260508131101 41 323 0.9 4.3 0.04 0.05 0.05 84 1011.9
20260508130559 41 323 0.0 4.3 0.04 0.05 0.05 84 1011.9
20260508125603 41 309 0.9 7.0 0.02 0.03 0.03 84 1011.8
20260508125058 41 292 0.0 2.6 0.01 0.02 0.02 84 1011.8
20260508124558 41 292 0.0 2.6 0.01 0.02 0.02 84 1011.7
20260508124057 41 292 0.0 6.1 0.01 0.02 0.02 84 1011.5
20260508123559 41 292 0.0 6.1 0.01 0.02 0.02 84 1011.5
20260508123056 40 292 0.9 7.0 0.00 0.01 0.01 84 1011.5
20260508122554 40 291 0.9 7.0 0.00 0.01 0.01 84 1011.4
20260508122054 41 307 0.9 7.0 0.00 0.01 0.01 84 1011.2
20260508121554 41 305 0.9 7.0 0.00 0.01 0.01 84 1011.2
20260508121053 41 16 0.0 4.3 0.00 0.01 0.01 85 1011.1
20260508120552 41 284 0.9 5.2 0.00 0.01 0.01 85 1010.9
20260508120100 41 122 0.0 2.6 0.00 0.01 0.01 85 1010.7
20260508115555 40 128 0.0 2.6 0.00 0.01 0.01 84 1010.6
20260508115054 40 128 0.0 2.6 0.00 0.01 0.01 84 1010.6
20260508114559 40 128 0.0 1.7 0.00 0.01 0.01 84 1010.8
20260508114050 40 128 0.0 0.9 0.00 0.01 0.01 84 1010.6